User: anonymous   Login
Location: Meetinghouse Hill
(42.7686°N, 71.7752°W)
Time: 18:55:34
(UTC-04:00)
Language:

Iridium 34 - Orbit

View from above orbital plane
View from above orbital plane
View from above satellite
View from above satellite

Ground track
Ground track

The orbit data is extracted from the following two-line orbital elements,

1 24969U 97056E   15123.51222906  .00000119  00000-0  35583-4 0  9995
2 24969 086.3931 283.0071 0002187 093.9092 266.2354 14.34214984921351
Epoch (UTC): 03 May 2015 12:17:36
Eccentricity: 0.0002187
inclination: 86.3931°
perigee height: 776 km
apogee height: 779 km
right ascension of ascending node: 283.0071°
argument of perigee: 93.9092°
revolutions per day: 14.34214984
mean anomaly at epoch: 266.2354°
orbit number at epoch: 92135

The dashed part of the orbit path shows where the satellite is in the earth's shadow,  

DLR